This is the latest recevied weather packets stored in our database for station/object KK7ISX. If no packets are shown the sender has not sent any weather packets the latest 1 day(s).
| Time | Temp. | Humidity | Pressure | Rain* | Wind** | Luminosity | Snow |
|---|---|---|---|---|---|---|---|
| 1778011354 | 22.78° C | 35% | 1009.8 hPa | 0 mm | 1.79 m/s, 344° | 742 W/m² | - |
| 1778011049 | 22.78° C | 38% | 1010.2 hPa | 0 mm | 4.02 m/s, 282° | 742 W/m² | - |
| 1778010747 | 22.22° C | 38% | 1010.3 hPa | 0 mm | 4.92 m/s, 304° | 750 W/m² | - |
| 1778010444 | 21.67° C | 37% | 1010.2 hPa | 0 mm | 1.79 m/s, 352° | 753 W/m² | - |
| 1778010140 | 22.78° C | 36% | 1010.3 hPa | 0 mm | 2.24 m/s, 281° | 755 W/m² | - |
| 1778009836 | 21.67° C | 37% | 1010.3 hPa | 0 mm | 2.24 m/s, 4° | 758 W/m² | - |
| 1778009534 | 21.67° C | 36% | 1010.3 hPa | 0 mm | 4.02 m/s, 358° | 761 W/m² | - |
| 1778009232 | 22.22° C | 37% | 1010.2 hPa | 0 mm | 3.58 m/s, 11° | 761 W/m² | - |
| 1778008929 | 22.22° C | 36% | 1010.6 hPa | 0 mm | 2.68 m/s, 314° | 764 W/m² | - |
| 1778008628 | 21.67° C | 38% | 1010.3 hPa | 0 mm | 1.79 m/s, 218° | 765 W/m² | - |
| 1778008326 | 21.11° C | 38% | 1010.7 hPa | 0 mm | 2.24 m/s, 277° | 766 W/m² | - |
| 1778008022 | 21.67° C | 39% | 1010.6 hPa | 0 mm | 1.34 m/s, 310° | 765 W/m² | - |
| 1778007721 | 21.11° C | 38% | 1010.6 hPa | 0 mm | 2.68 m/s, 317° | 765 W/m² | - |
| 1778007418 | 20.56° C | 39% | 1010.7 hPa | 0 mm | 2.68 m/s, 335° | 765 W/m² | - |
| 1778007115 | 20.56° C | 38% | 1010.7 hPa | 0 mm | 1.79 m/s, 259° | 764 W/m² | - |
| 1778006811 | 21.11° C | 39% | 1010.8 hPa | 0 mm | 2.24 m/s, 287° | 762 W/m² | - |
| 1778006508 | 21.11° C | 38% | 1010.7 hPa | 0 mm | 1.79 m/s, 293° | 762 W/m² | - |
| 1778006205 | 21.11° C | 37% | 1010.9 hPa | 0 mm | 0.45 m/s, 242° | 759 W/m² | - |
| 1778005903 | 20.56° C | 38% | 1011 hPa | 0 mm | 3.58 m/s, 286° | 758 W/m² | - |
| 1778005598 | 20.56° C | 39% | 1011 hPa | 0 mm | 1.79 m/s, 340° | 754 W/m² | - |
| 1778005296 | 21.11° C | 39% | 1010.9 hPa | 0 mm | 1.79 m/s, 311° | 752 W/m² | - |
| 1778004992 | 21.11° C | 38% | 1011 hPa | 0 mm | 2.24 m/s, 290° | 747 W/m² | - |
| 1778004690 | 21.11° C | 38% | 1010.8 hPa | 0 mm | 1.34 m/s, 262° | 744 W/m² | - |
| 1778004385 | 21.67° C | 37% | 1010.9 hPa | 0 mm | 0.45 m/s, 235° | 740 W/m² | - |
| 1778004083 | 20.56° C | 40% | 1010.9 hPa | 0 mm | 0.45 m/s, 249° | 734 W/m² | - |
* Rain latest hour (hover to see other rain measurements)
** Current wind speed in m/s (hover to see current wind gust speed)